This is the latest recevied weather packets stored in our database for station/object SQ2LXT-10. If no packets are shown the sender has not sent any weather packets the latest 10 day(s).
| Time | Temp. | Humidity | Pressure | Rain* | Wind** | Luminosity | Snow |
|---|---|---|---|---|---|---|---|
| 1777968044 | 18.89° C | 100% | 1005.2 hPa | - | - | - | - |
| 1777967144 | 18.89° C | 100% | 1005.1 hPa | - | - | - | - |
| 1777966244 | 17.78° C | 100% | 1005.1 hPa | - | - | - | - |
| 1777965343 | 17.22° C | 100% | 1005.2 hPa | - | - | - | - |
| 1777964443 | 17.22° C | 100% | 1005.2 hPa | - | - | - | - |
| 1777963543 | 16.11° C | 100% | 1005.4 hPa | - | - | - | - |
| 1777962643 | 14.44° C | 100% | 1005.8 hPa | - | - | - | - |
| 1777961743 | 13.89° C | 100% | 1006 hPa | - | - | - | - |
| 1777960843 | 13.89° C | 100% | 1006.1 hPa | - | - | - | - |
| 1777959943 | 13.89° C | 100% | 1006.4 hPa | - | - | - | - |
| 1777959043 | 14.44° C | 100% | 1006.3 hPa | - | - | - | - |
| 1777958143 | 14.44° C | 100% | 1006.4 hPa | - | - | - | - |
| 1777957243 | 14.44° C | 100% | 1006.3 hPa | - | - | - | - |
| 1777956343 | 16.11° C | 100% | 1006.2 hPa | - | - | - | - |
| 1777955443 | 18.89° C | 100% | 1006 hPa | - | - | - | - |
| 1777954543 | 14.44° C | 100% | 1006 hPa | - | - | - | - |
| 1777953643 | 17.22° C | 100% | 1006.3 hPa | - | - | - | - |
| 1777952743 | 11.67° C | 100% | 1006.4 hPa | - | - | - | - |
| 1777951843 | 10.56° C | 100% | 1006.3 hPa | - | - | - | - |
| 1777950942 | 10.56° C | 100% | 1006.4 hPa | - | - | - | - |
| 1777950043 | 10.56° C | 100% | 1006.3 hPa | - | - | - | - |
| 1777949142 | 11.11° C | 100% | 1006.3 hPa | - | - | - | - |
| 1777948286 | 11.11° C | 100% | 1006.4 hPa | - | - | - | - |
| 1777948242 | 11.11° C | 100% | 1006.4 hPa | - | - | - | - |
| 1777947342 | 11.67° C | 100% | 1006.4 hPa | - | - | - | - |
* Rain since midnight (hover to see other rain measurements)
** Current wind speed in m/s (hover to see current wind gust speed)